Tracking 33199 objects as of 16-Feb-2026
HD Live streaming from Space Station
objects crossing your sky now

STARLINK-31483

Track STARLINK-31483 now!
10-day predictions
STARLINK-31483 is classified as:


NORAD ID: 59411
Int'l Code: 2024-064P
Perigee: 489.4 km
Apogee: 491.4 km
Inclination: 43.0 °
Period: 94.3 minutes
Semi major axis: 6861 km
RCS: Unknown
Launch date: April 5, 2024
Source: United States (US)
Launch site: AIR FORCE EASTERN TEST RANGE (AFETR)
Your satellite tracking list
Your tracking list is empty




NASA's NSSDC Master Catalog

Two Line Element Set (TLE):
1 59411U 24064P   26046.38790251  .00012248  00000-0  45486-3 0  9996
2 59411  43.0009 182.2343 0001447 167.4052 192.6836 15.27507719105816
Source of the keplerian elements: AFSPC